Location: Freistadt
(48.5112°N, 14.5013°E)
Time: 16:28:06
(UTC+02:00)

Gurwin Techsat 1B - Visible Passes

Search period start: 27 March 2023 00:00
Search period end: 06 April 2023 00:00
Orbit: 811 x 814 km, 98.9° (Epoch: 26 March)

Date Brightness Start Highest point End Pass type
(mag) Time Alt. Az. Time Alt. Az. Time Alt. Az.
27 Mar 10.9 02:38:56 10° NE 02:42:09 16° E 02:42:36 16° E visible
27 Mar 8.5 04:17:22 10° NNE 04:22:43 82° WNW 04:23:48 58° SSW visible
27 Mar 10.4 05:58:49 10° NNW 06:01:49 15° NW 06:04:50 10° W visible
28 Mar 8.8 03:54:21 10° NNE 03:59:40 66° ESE 04:00:38 55° SSE visible
28 Mar 10.0 05:35:05 10° N 05:39:07 22° WNW 05:41:49 15° W visible
29 Mar 9.5 03:31:28 10° NNE 03:36:33 43° E 03:37:27 39° SE visible
29 Mar 9.5 05:11:39 10° N 05:16:19 32° WNW 05:18:38 23° WSW visible
30 Mar 10.1 03:08:48 10° NE 03:13:21 28° E 03:14:15 27° ESE visible
30 Mar 8.9 04:48:22 10° N 04:53:27 47° WNW 04:55:27 32° WSW visible
31 Mar 10.7 02:46:25 10° NE 02:50:04 18° E 02:51:04 18° ESE visible
31 Mar 8.5 04:25:12 10° N 04:30:31 72° WNW 04:32:16 42° SW visible
31 Mar 10.5 06:06:57 10° NNW 06:09:31 14° NW 06:12:05 10° W visible
01 Apr 11.1 02:24:56 10° ENE 02:26:42 11° E 02:27:54 11° E visible
01 Apr 8.7 04:02:08 10° NNE 04:07:30 76° ESE 04:09:06 46° S visible
01 Apr 10.1 05:43:05 10° NNW 05:46:50 20° WNW 05:50:18 11° W visible
02 Apr 9.3 03:39:13 10° NNE 03:44:24 49° E 03:45:54 38° SE visible
02 Apr 9.7 05:19:34 10° N 05:24:03 28° WNW 05:27:06 17° WSW visible
03 Apr 10.0 03:16:28 10° NNE 03:21:13 32° E 03:22:43 28° SE visible
03 Apr 9.1 04:56:15 10° N 05:01:13 42° WNW 05:03:55 24° WSW visible
04 Apr 10.5 02:53:57 10° NE 02:57:58 21° E 02:59:32 19° ESE visible
04 Apr 8.7 04:33:02 10° N 04:38:18 63° WNW 04:40:44 32° SW visible
05 Apr 11.0 02:32:02 10° ENE 02:34:37 14° E 02:36:20 12° ESE visible
05 Apr 8.6 04:09:57 10° NNE 04:15:18 87° ESE 04:17:32 37° SSW visible
05 Apr 10.2 05:51:06 10° NNW 05:54:31 18° NW 05:57:57 10° W visible
